Location: Im Fang
(46.6019°N, 7.2397°E)
Time: 07:55:53
(UTC+00:00)

Cosmos 2227 Rocket - Pass Details

Date: 08 December 2019
Orbit: 840 x 844 km, 71.0° (Epoch: 28 January)

Event Time Altitude Azimuth Distance (km) Brightness Sun altitude
Exits shadow 04:13:19 29° 2° (N) 1,514 3.4 -28.0°
Drops below altitude 10° 04:16:12 10° 18° (NNE) 2,474 4.8 -27.5°
Sets 04:18:45 0° 24° (NNE) 3,412 5.6 -27.0°
